Hourly Data Report for October 12, 2015

All times are specified in Local Standard Time (LST). Add 1 hour to adjust for Daylight Saving Time where and when it is observed.

CAPE DORSET A
NUNAVUT

64°13'49.000" N
76°31'30.000" W
48.20 m
2400637
71366
YTE

Download Data

Hourly Data (October 2015)
Hourly Data Report for October 12, 2015
Temp Definition
°C
Dew Point Temp Definition
°C
Rel Hum Definition
%
Wind Dir Definition
10's deg

Wind Spd Definition
km/h
Visibility Definition
km
Stn Press Definition
kPa
Hmdx Definition


Wind Chill Definition


Weather Definition


TIME
00:00 Legend Double Dagger -4.3 -4.9 96 26 13 16.1 99.58   -9 LegendNANA
01:00 Legend Double Dagger -4.9 -5.3 97 30 13 16.1 99.58   -10 LegendNANA
02:00 Legend Double Dagger -4.2 -5.0 94 25 11 16.1 99.58   -9 LegendNANA
03:00 Legend Double Dagger -4.3 -5.3 93 26 13 16.1 99.57   -9 LegendNANA
04:00 Legend Double Dagger -4.9 -5.7 94 26 11 16.1 99.58   -9 LegendNANA
05:00 Legend Double Dagger -4.6 -5.7 92 26 11 16.1 99.58   -9 LegendNANA
06:00 Legend Double Dagger -4.3 -5.0 95 27 4 16.1 99.59   -6 LegendNANA
07:00 Legend Double Dagger -4.1 -4.9 94 26 5 16.1 99.57   -6 LegendNANA
08:00 Legend Double Dagger -5.2 -6.2 93 26 8 16.1 99.55   -9 LegendNANA
09:00 Legend Double Dagger -5.0 -6.3 91 24 5 16.1 99.57   -7 Snow
10:00 Legend Double Dagger -4.5 -6.0 89 24 5 16.1 99.57   -7 Snow
11:00 Legend Double Dagger -3.7 -5.3 89   0 16.1 99.56     LegendNANA
12:00 Legend Double Dagger -2.7 -5.0 85 14 4 16.1 99.57   -4 LegendNANA
13:00 Legend Double Dagger -3.2 -5.1 87 25 8 16.1 99.56   -6 LegendNANA
14:00 Legend Double Dagger -2.7 -4.5 87 25 9 16.1 99.55   -6 LegendNANA
15:00 Legend Double Dagger -2.7 -4.5 88 26 11 16.1 99.53   -7 LegendNANA
16:00 Legend Double Dagger -3.4 -5.2 88 28 15 16.1 99.52   -9 LegendNANA
17:00 Legend Double Dagger -3.9 -5.6 88 30 15 16.1 99.51   -9 LegendNANA
18:00 Legend Double Dagger -4.2 -5.6 90 28 9 16.1 99.52   -8 LegendNANA
19:00 Legend Double Dagger -4.4 -5.5 92 27 9 16.1 99.52   -8 LegendNANA
20:00 Legend Double Dagger -4.4 -5.8 90 26 9 16.1 99.51   -8 LegendNANA
21:00 Legend Double Dagger -4.4 -5.4 93 26 8 16.1 99.45   -8 LegendNANA
22:00 Legend Double Dagger -4.8 -5.9 92 26 9 16.1 99.42   -9 LegendNANA
23:00 Legend Double Dagger -4.4 -4.9 96 26 9 16.1 99.39   -8 LegendNANA

Notes on Data Quality.

Legend

  • E = Estimated
  • M = Missing
  • NA = Not Available
  • ‡ = Partner data that is not subject to review by the National Climate Archives
Date modified: